COSMOS 252 DEB, 3555

Orbit data source: Space-Track

COSMOS 252 DEB, 3555 is space debris in LEO originally from a launch on Fri, 01 Nov 1968 UTC launched from the Tyuratam Missile And Space Complex (TTMTR). Debris objects in space refer to the collection of defunct objects orbiting the Earth. Examples of debris include non-operational satellites, rocket bodies, and fragments generated from explosions, collisions, or faulty payload assembly.

Loading next visibility...
Identifier
3555, 1968-097H
Orbit
LEO
Country
Flag of CISCIS
Related business
Manufacturer
Unknown
Mission
Spacecraft
Bus & Motor
Unknown
Mass
Unknown
Launch date (UTC)
1968-11-01 (57 years ago)
Launch vehicle
Unknown
Launch site
Tyuratam Missile And Space Complex (TTMTR)
Object type
Payload
Rocket body
Debris
Shape & HBR
Unknown shape, 0.6 m
Radar Cross Section
Medium (>0.1 m² and <1 m²)

Expand to show TLE details & history
Last TLE update: 12 hours ago

TLE from 12 hours ago
0 COSMOS 252 DEB
1 03555U 68097H   25352.26902330  .00000347  00000-0  15709-3 0  9999
2 03555  62.3159  11.6844 0914825 135.8470 231.9377 13.08333166713138
Epoch: 2025-12-18T06:27Z
TLE epoch observation values (Epoch: 2025-12-18T06:27:23.613Z)
Latitude
0.00001°
Longitude
-172.29094°
Altitude
1,696.679 km
Speed
6.81 km/s
True Right ascension
00h 46m 44s
True Declination
0° 00' 00"
Sunlit
Object was in daylight at epoch
Visualization orbit readout
Latitude
Unknown
Longitude
Unknown
Altitude
Unknown
Speed
Unknown
Apparent Right ascension
Unknown
Apparent Declination
Unknown
Sunlit
N/A
Visualization observer readout
Local Sidereal Time
17:19:04
Azimuth
Unknown
Elevation
Unknown
Doppler factor
Unknown
Orbital elements
Apogee altitude
1,924.467 km
Perigee altitude
532.703 km
Semi-major axis
7,606.722 km
Eccentricity
0.09148
Inclination
62.3159°
RAAN
11.6844°
Arg. of periapsis
135.847°
True anomaly
224.25166°
Mean anomaly
231.9377°
Eccentric anomaly
228.04001°
Mean motion
3.2715 °/min
Orbital period
110.04 mins
BSTAR
0.00015709
Loading maneuver chart data...
Computing Atmospheric mass density...

Documentation

Showing up to 5 results
|